www.hobby-wetter-faasend.de
Wetterdaten: aktuell Donnerstag, 27.02.2020 09:00
Datum Zeit Temp. A. Temp. A. min Temp. A. max Feuchte A. Luftdruck Regen Wind Richtung Richtung Sonnenschein Taupunkt Windchill Windben
27.02.2020 09:00 2,0 C 2,0 C 2,1 C 93 % 1005,7 hPa 0,0 l/m 6,4 km/h (2 Bft) S-SW 200 0 min 1,0 C 2,0 C 19,3 km/h (3 Bft)
27.02.2020 08:45 2,0 C 1,9 C 2,0 C 93 % 1006,0 hPa 0,2 l/m 6,3 km/h (2 Bft) S 188 0 min 1,0 C 2,0 C 16,1 km/h (3 Bft)
27.02.2020 08:30 1,9 C 1,8 C 1,9 C 93 % 1006,4 hPa 0,0 l/m 5,6 km/h (1 Bft) S-SO 154 0 min 0,9 C 1,9 C 17,7 km/h (3 Bft)
27.02.2020 08:15 1,8 C 1,7 C 1,8 C 93 % 1006,4 hPa 0,0 l/m 5,9 km/h (2 Bft) S 170 0 min 0,8 C 1,8 C 19,3 km/h (3 Bft)
27.02.2020 08:00 1,7 C 1,7 C 1,8 C 93 % 1006,7 hPa 0,0 l/m 3,8 km/h (1 Bft) S 178 0 min 0,7 C 1,7 C 12,9 km/h (3 Bft)
27.02.2020 07:45 1,7 C 1,6 C 1,7 C 93 % 1006,8 hPa 0,0 l/m 4,6 km/h (1 Bft) S 186 0 min 0,7 C 1,7 C 14,5 km/h (3 Bft)
27.02.2020 07:30 1,6 C 1,6 C 1,7 C 93 % 1007,2 hPa 0,0 l/m 4,0 km/h (1 Bft) S-SO 166 0 min 0,6 C 1,6 C 11,3 km/h (2 Bft)
27.02.2020 07:15 1,7 C 1,7 C 1,8 C 93 % 1007,3 hPa 0,0 l/m 2,2 km/h (1 Bft) S 180 0 min 0,7 C 1,7 C 9,7 km/h (2 Bft)
27.02.2020 07:00 1,8 C 1,7 C 1,8 C 93 % 1007,7 hPa 0,0 l/m 1,7 km/h (1 Bft) S 184 0 min 0,8 C 1,8 C 8,0 km/h (2 Bft)
27.02.2020 06:45 1,8 C 1,8 C 2,0 C 93 % 1008,0 hPa 0,0 l/m 2,4 km/h (1 Bft) S-SO 164 0 min 0,8 C 1,8 C 11,3 km/h (2 Bft)
27.02.2020 06:30 2,0 C 2,0 C 2,1 C 93 % 1008,2 hPa 0,0 l/m 2,3 km/h (1 Bft) S-SW 210 0 min 1,0 C 2,0 C 12,9 km/h (3 Bft)
27.02.2020 06:15 2,1 C 2,1 C 2,2 C 93 % 1008,3 hPa 0,0 l/m 2,3 km/h (1 Bft) S 178 0 min 1,1 C 2,1 C 11,3 km/h (2 Bft)
27.02.2020 06:00 2,2 C 2,2 C 2,2 C 93 % 1008,6 hPa 0,0 l/m 1,3 km/h (1 Bft) S 181 0 min 1,2 C 2,2 C 8,0 km/h (2 Bft)
27.02.2020 05:45 2,2 C 2,2 C 2,2 C 93 % 1008,7 hPa 0,0 l/m 2,1 km/h (1 Bft) S 178 0 min 1,2 C 2,2 C 11,3 km/h (2 Bft)
27.02.2020 05:30 2,2 C 2,1 C 2,2 C 92 % 1008,9 hPa 0,0 l/m 0,9 km/h (0 Bft) S-SW 208 0 min 1,0 C 2,2 C 6,4 km/h (2 Bft)
27.02.2020 05:15 2,1 C 1,9 C 2,1 C 92 % 1009,0 hPa 0,2 l/m 0,8 km/h (0 Bft) S-SW 199 0 min 0,9 C 2,1 C 6,4 km/h (2 Bft)
27.02.2020 05:00 1,9 C 1,8 C 1,9 C 92 % 1009,0 hPa 0,0 l/m 0,6 km/h (0 Bft) S-SW 193 0 min 0,7 C 1,9 C 6,4 km/h (2 Bft)
27.02.2020 04:45 1,8 C 1,7 C 1,8 C 92 % 1009,1 hPa 0,2 l/m 0,0 km/h (0 Bft) S 188 0 min 0,6 C 1,8 C 1,6 km/h (1 Bft)
27.02.2020 04:30 1,8 C 1,8 C 1,8 C 91 % 1009,2 hPa 0,0 l/m 0,0 km/h (0 Bft) S 188 0 min 0,5 C 1,8 C 0,0 km/h (0 Bft)
27.02.2020 04:15 1,8 C 1,8 C 2,1 C 91 % 1009,5 hPa 0,2 l/m 0,6 km/h (0 Bft) S 188 0 min 0,5 C 1,8 C 6,4 km/h (2 Bft)
27.02.2020 04:00 2,1 C 2,1 C 2,3 C 91 % 1009,6 hPa 0,2 l/m 0,4 km/h (0 Bft) S-SW 202 0 min 0,8 C 2,1 C 4,8 km/h (1 Bft)
27.02.2020 03:45 2,3 C 2,3 C 2,5 C 90 % 1009,9 hPa 0,4 l/m 2,0 km/h (1 Bft) SW 228 0 min 0,8 C 2,3 C 14,5 km/h (3 Bft)
27.02.2020 03:30 2,4 C 2,4 C 2,4 C 90 % 1010,1 hPa 0,0 l/m 2,0 km/h (1 Bft) S-SW 202 0 min 0,9 C 2,4 C 9,7 km/h (2 Bft)
27.02.2020 03:15 2,4 C 2,4 C 2,4 C 90 % 1010,1 hPa 0,0 l/m 2,0 km/h (1 Bft) SW 232 0 min 0,9 C 2,4 C 12,9 km/h (3 Bft)
27.02.2020 03:00 2,4 C 2,4 C 2,5 C 90 % 1010,2 hPa 0,0 l/m 0,8 km/h (0 Bft) S 185 0 min 0,9 C 2,4 C 12,9 km/h (3 Bft)
27.02.2020 02:45 2,4 C 2,4 C 2,5 C 90 % 1010,4 hPa 0,0 l/m 0,5 km/h (0 Bft) W-SW 243 0 min 0,9 C 2,4 C 8,0 km/h (2 Bft)
27.02.2020 02:30 2,5 C 2,5 C 2,6 C 90 % 1010,6 hPa 0,0 l/m 0,7 km/h (0 Bft) S-SW 198 0 min 1,0 C 2,5 C 9,7 km/h (2 Bft)
27.02.2020 02:15 2,6 C 2,6 C 2,7 C 90 % 1010,3 hPa 0,0 l/m 1,1 km/h (1 Bft) S-SW 211 0 min 1,1 C 2,6 C 9,7 km/h (2 Bft)
27.02.2020 02:00 2,7 C 2,7 C 2,7 C 90 % 1010,3 hPa 0,0 l/m 0,8 km/h (0 Bft) S 172 0 min 1,2 C 2,7 C 9,7 km/h (2 Bft)
27.02.2020 01:45 2,7 C 2,6 C 2,7 C 91 % 1010,4 hPa 0,0 l/m 0,9 km/h (0 Bft) W-SW 258 0 min 1,4 C 2,7 C 9,7 km/h (2 Bft)
27.02.2020 01:30 2,6 C 2,6 C 2,7 C 90 % 1010,3 hPa 0,0 l/m 0,1 km/h (0 Bft) S-SW 213 0 min 1,1 C 2,6 C 3,2 km/h (1 Bft)
27.02.2020 01:15 2,6 C 2,6 C 2,6 C 90 % 1010,4 hPa 0,0 l/m 0,8 km/h (0 Bft) S-SW 203 0 min 1,1 C 2,6 C 8,0 km/h (2 Bft)
27.02.2020 01:00 2,6 C 2,5 C 2,6 C 91 % 1010,3 hPa 0,0 l/m 1,0 km/h (0 Bft) SW 234 0 min 1,3 C 2,6 C 9,7 km/h (2 Bft)
27.02.2020 00:45 2,5 C 2,5 C 2,5 C 90 % 1010,4 hPa 0,0 l/m 0,2 km/h (0 Bft) S-SW 202 0 min 1,0 C 2,5 C 6,4 km/h (2 Bft)
27.02.2020 00:30 2,5 C 2,4 C 2,5 C 91 % 1010,3 hPa 0,0 l/m 0,6 km/h (0 Bft) NW 304 0 min 1,2 C 2,5 C 6,4 km/h (2 Bft)
27.02.2020 00:15 2,4 C 2,4 C 2,4 C 91 % 1010,4 hPa 0,0 l/m 1,0 km/h (0 Bft) SW 234 0 min 1,1 C 2,4 C 8,0 km/h (2 Bft)
27.02.2020 00:00 2,4 C 2,3 C 2,4 C 91 % 1010,4 hPa 0,0 l/m 0,9 km/h (0 Bft) W 275 0 min 1,1 C 2,4 C 8,0 km/h (2 Bft)
26.02.2020 23:45 2,3 C 2,2 C 2,3 C 90 % 1010,4 hPa 0,0 l/m 1,0 km/h (0 Bft) SW 229 0 min 0,8 C 2,3 C 11,3 km/h (2 Bft)
26.02.2020 23:30 2,3 C 2,2 C 2,3 C 90 % 1010,4 hPa 0,0 l/m 0,3 km/h (0 Bft) SW 216 0 min 0,8 C 2,3 C 6,4 km/h (2 Bft)
26.02.2020 23:15 2,2 C 2,2 C 2,2 C 90 % 1010,3 hPa 0,0 l/m 0,4 km/h (0 Bft) S-SW 211 0 min 0,7 C 2,2 C 6,4 km/h (2 Bft)
26.02.2020 23:00 2,2 C 2,2 C 2,2 C 90 % 1010,3 hPa 0,0 l/m 0,3 km/h (0 Bft) S-SW 211 0 min 0,7 C 2,2 C 4,8 km/h (1 Bft)
26.02.2020 22:45 2,2 C 2,2 C 2,2 C 90 % 1010,1 hPa 0,0 l/m 0,7 km/h (0 Bft) W-SW 248 0 min 0,7 C 2,2 C 6,4 km/h (2 Bft)
26.02.2020 22:30 2,2 C 2,1 C 2,2 C 90 % 1010,0 hPa 0,0 l/m 0,8 km/h (0 Bft) SW 227 0 min 0,7 C 2,2 C 12,9 km/h (3 Bft)
26.02.2020 22:15 2,2 C 2,2 C 2,2 C 89 % 1009,8 hPa 0,0 l/m 1,2 km/h (1 Bft) W-SW 250 0 min 0,6 C 2,2 C 9,7 km/h (2 Bft)
26.02.2020 22:00 2,2 C 2,2 C 2,2 C 89 % 1009,8 hPa 0,0 l/m 1,4 km/h (1 Bft) W-SW 254 0 min 0,6 C 2,2 C 12,9 km/h (3 Bft)
26.02.2020 21:45 2,2 C 2,2 C 2,3 C 89 % 1009,7 hPa 0,0 l/m 0,9 km/h (0 Bft) W-SW 238 0 min 0,6 C 2,2 C 12,9 km/h (3 Bft)
26.02.2020 21:30 2,3 C 2,2 C 2,3 C 89 % 1009,5 hPa 0,0 l/m 1,7 km/h (1 Bft) W-NW 298 0 min 0,7 C 2,3 C 11,3 km/h (2 Bft)
26.02.2020 21:15 2,3 C 2,3 C 2,3 C 89 % 1009,4 hPa 0,0 l/m 2,3 km/h (1 Bft) W-SW 257 0 min 0,7 C 2,3 C 14,5 km/h (3 Bft)
26.02.2020 21:03 2,3 C 2,3 C 2,3 C 89 % 1009,4 hPa 0,0 l/m 1,6 km/h (1 Bft) W 269 0 min 0,7 C 2,3 C 9,7 km/h (2 Bft)
26.02.2020 20:45 2,3 C 2,2 C 2,3 C 88 % 1009,2 hPa 0,0 l/m 2,2 km/h (1 Bft) W 265 0 min 0,5 C 2,3 C 16,1 km/h (3 Bft)
26.02.2020 20:30 2,2 C 2,2 C 2,2 C 88 % 1009,2 hPa 0,0 l/m 0,2 km/h (0 Bft) W 268 0 min 0,4 C 2,2 C 3,2 km/h (1 Bft)
26.02.2020 20:29 2,2 C 2,2 C 2,2 C 88 % 1009,2 hPa 0,0 l/m 0,2 km/h (0 Bft) SW 230 0 min 0,4 C 2,2 C 3,2 km/h (1 Bft)
26.02.2020 20:28 2,2 C 2,2 C 2,3 C 88 % 1009,2 hPa 0,0 l/m 1,0 km/h (0 Bft) SW 230 0 min 0,4 C 2,2 C 6,4 km/h (2 Bft)
26.02.2020 20:27 2,2 C 2,2 C 2,2 C 88 % 1009,2 hPa 0,0 l/m 1,7 km/h (1 Bft) W-SW 250 0 min 0,4 C 2,2 C 8,0 km/h (2 Bft)
26.02.2020 20:26 2,2 C 2,2 C 2,2 C 88 % 1009,2 hPa 0,0 l/m 3,2 km/h (1 Bft) W-SW 257 0 min 0,4 C 2,2 C 6,4 km/h (2 Bft)
26.02.2020 20:25 2,2 C 2,2 C 2,3 C 87 % 1009,3 hPa 0,0 l/m 0,0 km/h (0 Bft) SW 225 0 min 0,3 C 2,2 C 0,0 km/h (0 Bft)
26.02.2020 20:24 2,2 C 2,2 C 2,3 C 87 % 1009,2 hPa 0,0 l/m 1,7 km/h (1 Bft) S-SW 209 0 min 0,3 C 2,2 C 6,4 km/h (2 Bft)
26.02.2020 20:23 2,3 C 2,2 C 2,3 C 87 % 1009,2 hPa 0,0 l/m 1,2 km/h (1 Bft) W 269 0 min 0,4 C 2,3 C 3,2 km/h (1 Bft)
26.02.2020 20:22 2,3 C 2,3 C 2,3 C 87 % 1009,2 hPa 0,0 l/m 0,0 km/h (0 Bft) W 269 0 min 0,4 C 2,3 C 0,0 km/h (0 Bft)
26.02.2020 20:21 2,3 C 2,3 C 2,3 C 87 % 1009,2 hPa 0,0 l/m 0,0 km/h (0 Bft) W 269 0 min 0,4 C 2,3 C 0,0 km/h (0 Bft)
26.02.2020 20:20 2,3 C 2,3 C 2,3 C 87 % 1009,2 hPa 0,0 l/m 0,0 km/h (0 Bft) W 270 0 min 0,4 C 2,3 C 0,0 km/h (0 Bft)
26.02.2020 20:19 2,3 C 2,3 C 2,3 C 87 % 1009,2 hPa 0,0 l/m 0,1 km/h (0 Bft) W 270 0 min 0,4 C 2,3 C 1,6 km/h (1 Bft)
26.02.2020 20:18 2,3 C 2,3 C 2,3 C 87 % 1009,2 hPa 0,0 l/m 0,0 km/h (0 Bft) W 269 0 min 0,4 C 2,3 C 0,0 km/h (0 Bft)
26.02.2020 20:17 2,3 C 2,3 C 2,3 C 87 % 1009,2 hPa 0,0 l/m 0,0 km/h (0 Bft) W 269 0 min 0,4 C 2,3 C 0,0 km/h (0 Bft)
26.02.2020 20:16 2,3 C 2,3 C 2,4 C 87 % 1009,2 hPa 0,0 l/m 0,7 km/h (0 Bft) W 269 0 min 0,4 C 2,3 C 11,3 km/h (2 Bft)
26.02.2020 20:00 2,4 C 2,4 C 2,7 C 86 % 1008,9 hPa 0,0 l/m 1,1 km/h (1 Bft) S-SW 211 0 min 0,3 C 2,4 C 9,7 km/h (2 Bft)
26.02.2020 19:45 2,7 C 2,7 C 2,9 C 85 % 1008,8 hPa 0,0 l/m 1,1 km/h (1 Bft) SW 215 0 min 0,4 C 2,7 C 11,3 km/h (2 Bft)
26.02.2020 19:30 2,9 C 2,9 C 3,1 C 85 % 1008,6 hPa 0,0 l/m 1,1 km/h (1 Bft) W 273 0 min 0,6 C 2,9 C 9,7 km/h (2 Bft)
26.02.2020 19:16 3,1 C 3,1 C 3,3 C 85 % 1008,4 hPa 0,0 l/m 1,4 km/h (1 Bft) SW 228 0 min 0,8 C 3,1 C 11,3 km/h (2 Bft)
26.02.2020 19:00 3,3 C 3,3 C 3,5 C 84 % 1008,1 hPa 0,0 l/m 1,6 km/h (1 Bft) W-NW 284 0 min 0,9 C 3,3 C 12,9 km/h (3 Bft)
26.02.2020 18:45 3,5 C 3,5 C 3,6 C 83 % 1007,9 hPa 0,0 l/m 3,0 km/h (1 Bft) W 277 0 min 0,9 C 3,5 C 14,5 km/h (3 Bft)
26.02.2020 18:30 3,6 C 3,6 C 3,7 C 83 % 1007,5 hPa 0,0 l/m 2,8 km/h (1 Bft) W-NW 296 0 min 1,0 C 3,6 C 17,7 km/h (3 Bft)
26.02.2020 18:15 3,7 C 3,7 C 3,8 C 83 % 1007,3 hPa 0,0 l/m 1,8 km/h (1 Bft) S-SW 205 0 min 1,1 C 3,7 C 14,5 km/h (3 Bft)
26.02.2020 18:00 3,8 C 3,8 C 4,1 C 82 % 1007,1 hPa 0,0 l/m 2,2 km/h (1 Bft) W 277 0 min 1,0 C 3,8 C 11,3 km/h (2 Bft)
26.02.2020 17:45 4,1 C 4,1 C 4,3 C 81 % 1007,0 hPa 0,0 l/m 4,0 km/h (1 Bft) W 277 0 min 1,1 C 4,1 C 19,3 km/h (3 Bft)
26.02.2020 17:30 4,3 C 4,3 C 4,7 C 79 % 1006,8 hPa 0,0 l/m 5,0 km/h (1 Bft) W-NW 293 0 min 1,0 C 4,3 C 24,1 km/h (4 Bft)
26.02.2020 17:15 4,7 C 4,7 C 5,2 C 78 % 1006,6 hPa 0,0 l/m 8,3 km/h (2 Bft) W-NW 297 0 min 1,2 C 3,0 C 22,5 km/h (4 Bft)
26.02.2020 17:00 5,2 C 5,2 C 5,5 C 77 % 1006,3 hPa 0,0 l/m 5,3 km/h (1 Bft) W-SW 254 0 min 1,5 C 5,2 C 19,3 km/h (3 Bft)
26.02.2020 16:47 5,5 C 5,5 C 5,9 C 74 % 1006,1 hPa 0,2 l/m 6,7 km/h (2 Bft) W 267 0 min 1,2 C 5,3 C 27,4 km/h (4 Bft)
26.02.2020 16:30 5,9 C 5,2 C 5,9 C 75 % 1005,8 hPa 0,0 l/m 6,5 km/h (2 Bft) W-NW 301 0 min 1,8 C 5,8 C 24,1 km/h (4 Bft)
26.02.2020 16:16 5,2 C 5,0 C 5,2 C 79 % 1005,7 hPa 0,0 l/m 3,4 km/h (1 Bft) W 278 0 min 1,9 C 5,2 C 20,9 km/h (4 Bft)
26.02.2020 16:00 5,1 C 5,1 C 5,3 C 77 % 1005,6 hPa 0,0 l/m 2,9 km/h (1 Bft) W-NW 299 0 min 1,4 C 5,1 C 16,1 km/h (3 Bft)
26.02.2020 15:45 5,3 C 5,3 C 5,5 C 76 % 1005,5 hPa 0,0 l/m 3,7 km/h (1 Bft) W 279 0 min 1,4 C 5,3 C 16,1 km/h (3 Bft)
26.02.2020 15:30 5,5 C 4,7 C 5,5 C 79 % 1005,1 hPa 0,0 l/m 3,2 km/h (1 Bft) W 269 0 min 2,2 C 5,5 C 16,1 km/h (3 Bft)
26.02.2020 15:15 4,7 C 4,1 C 4,7 C 83 % 1005,0 hPa 0,0 l/m 5,7 km/h (1 Bft) W 267 0 min 2,1 C 4,7 C 22,5 km/h (4 Bft)
26.02.2020 15:00 4,1 C 4,0 C 4,1 C 85 % 1004,8 hPa 0,0 l/m 3,3 km/h (1 Bft) W-NW 288 0 min 1,8 C 4,1 C 16,1 km/h (3 Bft)
26.02.2020 14:45 4,0 C 4,0 C 4,2 C 85 % 1004,7 hPa 0,0 l/m 4,2 km/h (1 Bft) W 272 0 min 1,7 C 4,0 C 14,5 km/h (3 Bft)
26.02.2020 14:30 4,2 C 4,2 C 4,6 C 84 % 1004,5 hPa 0,0 l/m 5,1 km/h (1 Bft) NW 309 0 min 1,7 C 4,2 C 25,7 km/h (4 Bft)
26.02.2020 14:15 4,6 C 4,6 C 5,0 C 81 % 1004,4 hPa 0,0 l/m 6,0 km/h (2 Bft) N-NW 343 0 min 1,6 C 4,6 C 24,1 km/h (4 Bft)
26.02.2020 14:00 4,9 C 4,7 C 5,0 C 80 % 1004,1 hPa 0,0 l/m 4,2 km/h (1 Bft) W 277 0 min 1,7 C 4,9 C 22,5 km/h (4 Bft)
26.02.2020 13:45 4,7 C 4,7 C 4,9 C 80 % 1003,9 hPa 0,0 l/m 8,8 km/h (2 Bft) W-NW 297 0 min 1,6 C 2,6 C 25,7 km/h (4 Bft)
26.02.2020 13:30 4,9 C 4,6 C 4,9 C 81 % 1003,8 hPa 0,0 l/m 4,6 km/h (1 Bft) NW 312 0 min 1,9 C 4,9 C 33,8 km/h (5 Bft)
26.02.2020 13:15 4,6 C 4,3 C 4,6 C 85 % 1003,6 hPa 0,0 l/m 4,9 km/h (1 Bft) SW 234 0 min 2,3 C 4,6 C 19,3 km/h (3 Bft)
26.02.2020 13:00 4,3 C 3,8 C 4,3 C 84 % 1003,7 hPa 0,0 l/m 6,7 km/h (2 Bft) N-NW 342 0 min 1,8 C 4,0 C 19,3 km/h (3 Bft)
26.02.2020 12:45 3,8 C 3,6 C 3,8 C 86 % 1003,6 hPa 0,0 l/m 7,3 km/h (2 Bft) W 267 0 min 1,7 C 3,0 C 24,1 km/h (4 Bft)
26.02.2020 12:30 3,7 C 3,6 C 3,7 C 88 % 1003,5 hPa 0,0 l/m 2,0 km/h (1 Bft) W 261 0 min 1,9 C 3,7 C 12,9 km/h (3 Bft)
26.02.2020 12:15 3,6 C 3,6 C 3,7 C 87 % 1003,4 hPa 0,2 l/m 5,9 km/h (2 Bft) W-NW 293 0 min 1,6 C 3,6 C 22,5 km/h (4 Bft)
26.02.2020 12:00 3,7 C 3,3 C 3,7 C 87 % 1003,0 hPa 0,0 l/m 4,5 km/h (1 Bft) W-NW 284 0 min 1,7 C 3,7 C 22,5 km/h (4 Bft)
26.02.2020 11:45 3,3 C 3,3 C 3,4 C 87 % 1002,9 hPa 0,0 l/m 6,6 km/h (2 Bft) W 268 0 min 1,3 C 3,1 C 27,4 km/h (4 Bft)
26.02.2020 11:30 3,4 C 3,4 C 3,8 C 86 % 1002,7 hPa 0,0 l/m 6,6 km/h (2 Bft) W-NW 294 0 min 1,3 C 3,2 C 24,1 km/h (4 Bft)
26.02.2020 11:16 3,8 C 3,4 C 3,8 C 88 % 1002,5 hPa 0,0 l/m 5,3 km/h (1 Bft) NW 306 0 min 2,0 C 3,8 C 22,5 km/h (4 Bft)
26.02.2020 11:00 3,4 C 2,9 C 3,4 C 90 % 1002,2 hPa 0,0 l/m 6,6 km/h (2 Bft) W-NW 298 0 min 1,9 C 3,2 C 22,5 km/h (4 Bft)
26.02.2020 10:45 2,9 C 2,4 C 2,9 C 92 % 1001,9 hPa 0,0 l/m 6,0 km/h (2 Bft) NW 323 0 min 1,7 C 2,9 C 24,1 km/h (4 Bft)
26.02.2020 10:30 2,4 C 2,2 C 2,4 C 93 % 1001,9 hPa 0,0 l/m 1,7 km/h (1 Bft) W-SW 255 0 min 1,4 C 2,4 C 12,9 km/h (3 Bft)
26.02.2020 10:15 2,2 C 2,1 C 2,2 C 92 % 1001,7 hPa 0,0 l/m 2,4 km/h (1 Bft) W 273 0 min 1,0 C 2,2 C 22,5 km/h (4 Bft)
26.02.2020 10:00 2,1 C 1,9 C 2,1 C 92 % 1001,5 hPa 0,0 l/m 3,7 km/h (1 Bft) NW 306 0 min 0,9 C 2,1 C 19,3 km/h (3 Bft)
_ Min-Zeit 07:30 07:30 07:30 16:47 10:00 - 20:17 - - - 20:24 07:30 20:17
Minimum _ 1,6 C 1,6 C 1,7 C 74 % 1001,5 hPa - 0,0 km/h (0 Bft) - - - 0,3 C 1,6 C 0,0 km/h (0 Bft)
_ Max-Zeit 16:30 16:47 16:30 10:30 02:30 03:45 13:45 - - 10:00 13:15 16:30 13:30
Maximum _ 5,9 C 5,5 C 5,9 C 93 % 1010,6 hPa 0,4 l/m 8,8 km/h
W-NW (2 Bft)
- - 0 min 2,3 C 5,8 C 33,8 km/h
W-NW (5 Bft)
Durchschnitt _ 2,9 C 2,8 C 3,0 C 88 % 1006,9 hPa #1,8 l/m 2,9 km/h (1 Bft) W - #0 min. 1,1 C 2,9 C 14,5 km/h (3 Bft)